{"data":{"norad_id":54798,"intl_designator":"2022-175AS","name":"STARLINK-5420","alt_names":[],"object_type":"PAYLOAD","status":"ACTIVE","operator":null,"country":"US","launch_date":"2022-12-17","launch_site_code":"AFETR","launch_vehicle":null,"mission":null,"orbit_class":"UNKNOWN","rcs_meters":null,"size_class":null,"mass_kg":null,"dimensions":null,"purposes":["comms"],"wikipedia_slug":null,"has_3d_model":false,"image_url":null,"decayed_at":null,"tle_current":{"epoch":"2026-05-25T03:09:45.995904Z","epoch_age_seconds":53922,"freshness":"FRESH","line1":"1 54798U 22175AS  26145.13178236 -.00000309  00000+0 -13351-5 0  9990","line2":"2 54798  53.2135  35.7216 0001500  70.7752 289.3402 15.08835711191819","mean_motion":15.08835711,"eccentricity":0.00015,"inclination_deg":53.2135,"raan_deg":35.7216,"arg_perigee_deg":70.7752,"mean_anomaly_deg":289.3402,"bstar":-1.3351e-6,"rev_number":19181,"period_min":95.437825967522,"perigee_km":538.7188147275,"apogee_km":540.79418277713,"semimajor_km":6917.8934987523,"source":"CELESTRAK","updated_at":"2026-05-25T13:38:17.696325Z"}}}